This is the latest recevied weather packets stored in our database for station/object DB0WUN-13. If no packets are shown the sender has not sent any weather packets the latest 1 day(s).
| Time | Temp. | Humidity | Pressure | Rain* | Wind** | Luminosity | Snow |
|---|---|---|---|---|---|---|---|
| 1777993621 | 18.33° C | 67% | 1007.3 hPa | 0 mm | 1.79 m/s, 59° | 127 W/m² | - |
| 1777993576 | 18.33° C | 67% | 1007.3 hPa | 0 mm | 1.79 m/s, 36° | 123 W/m² | - |
| 1777993393 | 18.33° C | 66% | 1007.2 hPa | 0 mm | 1.79 m/s, 16° | 121 W/m² | - |
| 1777993329 | 18.33° C | 66% | 1007.2 hPa | 0 mm | 2.24 m/s, 63° | 123 W/m² | - |
| 1777993274 | 18.33° C | 65% | 1007.2 hPa | 0 mm | 1.79 m/s, 34° | 127 W/m² | - |
| 1777993222 | 18.33° C | 65% | 1007.3 hPa | 0 mm | 1.79 m/s, 344° | 130 W/m² | - |
| 1777993150 | 18.33° C | 65% | 1007.2 hPa | 0 mm | 1.79 m/s, 30° | 130 W/m² | - |
| 1777993089 | 18.33° C | 65% | 1007.2 hPa | 0 mm | 1.79 m/s, 40° | 130 W/m² | - |
| 1777993026 | 18.33° C | 64% | 1007.2 hPa | 0 mm | 1.79 m/s, 52° | 128 W/m² | - |
| 1777992969 | 18.33° C | 64% | 1007.2 hPa | 0 mm | 1.79 m/s, 27° | 128 W/m² | - |
| 1777992916 | 18.33° C | 64% | 1007.2 hPa | 0 mm | 1.79 m/s, 32° | 127 W/m² | - |
| 1777992846 | 18.33° C | 64% | 1007.3 hPa | 0 mm | 1.79 m/s, 36° | 125 W/m² | - |
| 1777992786 | 18.33° C | 64% | 1007.3 hPa | 0 mm | 1.34 m/s, 68° | 123 W/m² | - |
| 1777992727 | 18.33° C | 64% | 1007.3 hPa | 0 mm | 1.34 m/s, 13° | 123 W/m² | - |
| 1777992663 | 18.33° C | 64% | 1007.4 hPa | 0 mm | 1.34 m/s, 45° | 121 W/m² | - |
| 1777992614 | 18.33° C | 64% | 1007.2 hPa | 0 mm | 1.34 m/s, 30° | 120 W/m² | - |
| 1777992541 | 18.33° C | 63% | 1007.3 hPa | 0 mm | 1.34 m/s, 19° | 120 W/m² | - |
| 1777992481 | 18.33° C | 63% | 1007.3 hPa | 0 mm | 1.34 m/s, 18° | 123 W/m² | - |
| 1777992422 | 18.33° C | 63% | 1007.3 hPa | 0 mm | 1.34 m/s, 30° | 128 W/m² | - |
| 1777992362 | 18.33° C | 63% | 1007.3 hPa | 0 mm | 0.89 m/s, 27° | 134 W/m² | - |
| 1777992302 | 18.33° C | 64% | 1007.3 hPa | 0 mm | 0.89 m/s, 28° | 141 W/m² | - |
| 1777992240 | 18.33° C | 64% | 1007.3 hPa | 0 mm | 0.89 m/s, 347° | 149 W/m² | - |
| 1777992188 | 18.33° C | 64% | 1007.3 hPa | 0 mm | 1.34 m/s, 40° | 158 W/m² | - |
| 1777992155 | 18.33° C | 63% | 1007.4 hPa | 0 mm | 1.34 m/s, 30° | 160 W/m² | - |
| 1777992120 | 18.33° C | 63% | 1007.3 hPa | 0 mm | 1.34 m/s, 17° | 160 W/m² | - |
* Rain latest hour (hover to see other rain measurements)
** Current wind speed in m/s (hover to see current wind gust speed)